CW0958 Weather Reports


Display with metric or nautical units.
time (UTC)temp
F
wind
direction
speed
MPH
gust
MPH
rain 1hr
in
rain 24hr
in
rain mn
in
humidity
%
barometer
mb
20260505070536 71 291 10.0 15.0 0.00 0.00 0.00 38 1011.3
20260505070045 71 275 9.0 15.0 0.00 0.00 0.00 38 1011.2
20260505065536 71 268 10.0 16.0 0.00 0.00 0.00 38 1011.4
20260505065035 71 277 10.0 16.0 0.00 0.00 0.00 38 1011.3
20260505064546 71 281 11.0 14.0 0.00 0.00 0.00 38 1011.4
20260505064035 71 275 9.0 14.0 0.00 0.00 0.00 39 1011.3
20260505063535 71 279 8.0 14.0 0.00 0.00 0.00 39 1011.3
20260505063042 71 269 7.0 12.0 0.00 0.00 0.00 39 1011.4
20260505062538 72 273 6.0 9.0 0.00 0.00 0.00 38 1011.4
20260505062038 72 286 4.0 8.0 0.00 0.00 0.00 38 1011.4
20260505061550 72 265 3.0 9.0 0.00 0.00 0.00 38 1011.3
20260505061035 72 257 5.0 9.0 0.00 0.00 0.00 38 1011.2
20260505060536 72 257 5.0 11.0 0.00 0.00 0.00 38 1011.1
20260505060052 72 254 6.0 11.0 0.00 0.00 0.00 38 1011.0
20260505055536 72 261 3.0 7.0 0.00 0.00 0.00 39 1011.0
20260505055036 72 259 3.0 7.0 0.00 0.00 0.00 39 1011.0
20260505054556 72 286 3.0 10.0 0.00 0.00 0.00 40 1011.0
20260505054036 72 269 5.0 10.0 0.00 0.00 0.00 40 1011.0
20260505053537 72 275 4.0 9.0 0.00 0.00 0.00 40 1011.1
20260505053044 72 231 4.0 9.0 0.00 0.00 0.00 40 1011.1
20260505052536 72 250 5.0 10.0 0.00 0.00 0.00 41 1011.2
20260505052036 72 275 7.0 10.0 0.00 0.00 0.00 41 1011.1
20260505051544 72 273 4.0 10.0 0.00 0.00 0.00 41 1011.2
20260505051036 72 275 6.0 10.0 0.00 0.00 0.00 42 1011.2
20260505050536 72 286 7.0 10.0 0.00 0.00 0.00 41 1011.3
20260505041548 73 269 3.0 7.0 0.00 0.00 0.00 40 1011.4
20260505041037 73 246 3.0 7.0 0.00 0.00 0.00 40 1011.4
20260505040536 73 240 3.0 7.0 0.00 0.00 0.00 40 1011.3
20260505040044 73 244 3.0 8.0 0.00 0.00 0.00 40 1011.4
20260505035536 73 286 4.0 9.0 0.00 0.00 0.00 39 1011.4
20260505035036 73 286 5.0 9.0 0.00 0.00 0.00 39 1011.4
20260505034552 73 271 4.0 7.0 0.00 0.00 0.00 39 1011.4
20260505034035 73 280 4.0 7.0 0.00 0.00 0.00 38 1011.3
20260505033536 73 265 3.0 7.0 0.00 0.00 0.00 38 1011.2
20260505033046 74 284 4.0 7.0 0.00 0.00 0.00 37 1010.9
20260505032540 74 281 3.0 7.0 0.00 0.00 0.00 37 1010.8
20260505032035 74 261 3.0 10.0 0.00 0.00 0.00 37 1010.7
20260505031556 74 261 5.0 10.0 0.00 0.00 0.00 37 1010.8
20260505031036 74 279 5.0 8.0 0.00 0.00 0.00 37 1010.7
20260505030537 74 269 5.0 8.0 0.00 0.00 0.00 36 1010.6
20260505030100 74 269 4.0 9.0 0.00 0.00 0.00 36 1010.6
20260505025537 74 275 4.0 9.0 0.00 0.00 0.00 36 1010.6
20260505025036 74 275 6.0 9.0 0.00 0.00 0.00 35 1010.5
20260505024550 74 269 6.0 9.0 0.00 0.00 0.00 35 1010.4
20260505024035 74 269 7.0 9.0 0.00 0.00 0.00 35 1010.4
20260505023536 74 265 4.0 10.0 0.00 0.00 0.00 35 1010.4
20260505023047 74 292 5.0 10.0 0.00 0.00 0.00 35 1010.5
20260505022536 74 291 6.0 10.0 0.00 0.00 0.00 35 1010.6
20260505022035 74 275 7.0 10.0 0.00 0.00 0.00 35 1010.6
20260505021541 74 286 6.0 11.0 0.00 0.00 0.00 35 1010.6
20260505021035 74 275 7.0 12.0 0.00 0.00 0.00 35 1010.6
20260505020535 74 262 8.0 12.0 0.00 0.00 0.00 35 1010.4
20260505020050 75 281 8.0 11.0 0.00 0.00 0.00 36 1010.4
20260505015535 75 295 7.0 12.0 0.00 0.00 0.00 36 1010.4
20260505015035 75 277 9.0 12.0 0.00 0.00 0.00 36 1010.5
20260505014604 75 273 7.0 12.0 0.00 0.00 0.00 36 1010.4
20260505014037 75 273 9.0 12.0 0.00 0.00 0.00 35 1010.4
20260505013534 75 275 7.0 11.0 0.00 0.00 0.00 36 1010.4
20260505013051 75 265 7.0 12.0 0.00 0.00 0.00 35 1010.3
20260505012534 75 280 8.0 13.0 0.00 0.00 0.00 35 1010.3
20260505012036 75 261 8.0 13.0 0.00 0.00 0.00 35 1010.4
20260505011549 75 271 8.0 13.0 0.00 0.00 0.00 35 1010.5
20260505011035 75 275 7.0 14.0 0.00 0.00 0.00 37 1010.7
20260505010535 75 292 9.0 14.0 0.00 0.00 0.00 37 1010.4
20260505010041 75 263 9.0 14.0 0.00 0.00 0.00 37 1010.5
20260505005536 75 266 10.0 14.0 0.00 0.00 0.00 37 1010.4
20260505005035 75 262 9.0 13.0 0.00 0.00 0.00 38 1010.6
20260505004554 76 297 7.0 15.0 0.00 0.00 0.00 39 1010.6
20260505004034 76 298 8.0 15.0 0.00 0.00 0.00 38 1010.6
20260505003535 76 259 9.0 14.0 0.00 0.00 0.00 38 1010.5
20260505003044 76 286 9.0 14.0 0.00 0.00 0.00 38 1010.5
20260505002537 76 267 9.0 15.0 0.00 0.00 0.00 38 1010.6
20260505002035 76 268 12.0 16.0 0.00 0.00 0.00 38 1010.6
20260505001546 76 294 9.0 16.0 0.00 0.00 0.00 39 1010.7
20260505001035 76 269 9.0 14.0 0.00 0.00 0.00 39 1010.6
20260505000535 76 286 9.0 13.0 0.00 0.00 0.00 38 1010.9
20260505000057 76 247 7.0 13.0 0.00 0.00 0.00 38 1010.8
20260504235535 76 246 7.0 12.0 0.00 0.00 0.00 38 1010.9
20260504235035 76 265 6.0 12.0 0.00 0.00 0.00 38 1010.9
20260504234550 76 255 8.0 16.0 0.00 0.00 0.00 38 1010.9
20260504234036 76 241 9.0 16.0 0.00 0.00 0.00 38 1010.9
20260504233536 76 297 9.0 16.0 0.00 0.00 0.00 39 1010.9
20260504233046 76 291 6.0 16.0 0.00 0.00 0.00 38 1011.0
20260504232536 77 277 10.0 15.0 0.00 0.00 0.00 37 1011.0
20260504232035 77 267 10.0 15.0 0.00 0.00 0.00 37 1011.0
20260504231544 77 225 6.0 18.0 0.00 0.00 0.00 37 1011.0
20260504231035 76 280 9.0 18.0 0.00 0.00 0.00 37 1010.9
20260504230535 76 259 10.0 16.0 0.00 0.00 0.00 39 1011.1
20260504230049 76 321 8.0 17.0 0.00 0.00 0.00 38 1011.0
20260504225535 76 277 10.0 17.0 0.00 0.00 0.00 38 1011.0
20260504225039 76 273 12.0 17.0 0.00 0.00 0.00 37 1011.0
20260504224547 76 257 10.0 15.0 0.00 0.00 0.00 37 1011.0
20260504224036 76 250 9.0 15.0 0.00 0.00 0.00 37 1011.1
20260504223535 76 293 8.0 16.0 0.00 0.00 0.00 38 1011.1
20260504223047 76 293 9.0 16.0 0.00 0.00 0.00 38 1011.2
20260504222538 76 267 9.0 17.0 0.00 0.00 0.00 38 1011.3
20260504222117 76 270 12.0 17.0 0.00 0.00 0.00 38 1011.3
20260504222035 76 270 12.0 17.0 0.00 0.00 0.00 38 1011.3
20260504221546 76 271 10.0 16.0 0.00 0.00 0.00 38 1011.3
20260504221036 76 267 7.0 16.0 0.00 0.00 0.00 37 1011.3
20260504220536 76 288 10.0 16.0 0.00 0.00 0.00 39 1011.4
20260504220045 76 272 12.0 18.0 0.00 0.00 0.00 38 1011.4
20260504215535 76 293 10.0 20.0 0.00 0.00 0.00 40 1011.5
20260504215035 76 288 10.0 20.0 0.00 0.00 0.00 39 1011.7
20260504214552 76 284 9.0 14.0 0.00 0.00 0.00 40 1011.7
20260504214038 76 268 9.0 19.0 0.00 0.00 0.00 39 1011.8
20260504213535 75 279 12.0 19.0 0.00 0.00 0.00 40 1011.9
20260504213039 75 259 6.0 19.0 0.00 0.00 0.00 40 1011.8
20260504212536 75 279 10.0 19.0 0.00 0.00 0.00 40 1012.1
20260504212037 75 242 10.0 16.0 0.00 0.00 0.00 41 1012.1
20260504211547 75 291 11.0 19.0 0.00 0.00 0.00 40 1012.2
20260504211035 75 267 11.0 19.0 0.00 0.00 0.00 40 1012.3
20260504210538 75 236 9.0 18.0 0.00 0.00 0.00 40 1012.2
20260504210057 74 271 11.0 18.0 0.00 0.00 0.00 40 1012.3
20260504205536 74 273 12.0 18.0 0.00 0.00 0.00 40 1012.2
20260504205035 74 231 8.0 20.0 0.00 0.00 0.00 41 1012.3
20260504204558 74 266 11.0 20.0 0.00 0.00 0.00 41 1012.4
20260504204035 74 262 11.0 18.0 0.00 0.00 0.00 42 1012.5
20260504203535 74 275 9.0 18.0 0.00 0.00 0.00 42 1012.6
20260504203049 75 275 10.0 16.0 0.00 0.00 0.00 42 1012.7
20260504202535 75 287 11.0 16.0 0.00 0.00 0.00 41 1012.8
20260504202036 75 254 9.0 18.0 0.00 0.00 0.00 41 1012.7
20260504201547 74 273 9.0 18.0 0.00 0.00 0.00 42 1012.7
20260504201036 73 275 12.0 17.0 0.00 0.00 0.00 42 1013.0
20260504200536 73 298 9.0 15.0 0.00 0.00 0.00 41 1012.9
20260504200047 73 296 7.0 15.0 0.00 0.00 0.00 42 1012.8
20260504195535 73 261 8.0 16.0 0.00 0.00 0.00 42 1013.1
20260504195035 72 295 11.0 17.0 0.00 0.00 0.00 40 1012.9
20260504194545 72 265 11.0 17.0 0.00 0.00 0.00 41 1013.1
20260504194036 72 270 8.0 15.0 0.00 0.00 0.00 40 1012.7
20260504193538 72 286 10.0 17.0 0.00 0.00 0.00 40 1012.7
20260504193044 72 280 12.0 17.0 0.00 0.00 0.00 39 1013.0
20260504192536 72 257 9.0 16.0 0.00 0.00 0.00 40 1012.7
20260504192036 72 271 10.0 16.0 0.00 0.00 0.00 41 1012.4
20260504191542 72 267 9.0 13.0 0.00 0.00 0.00 41 1012.7
20260504191036 72 277 9.0 14.0 0.00 0.00 0.00 41 1012.5
20260504190535 72 250 8.0 16.0 0.00 0.00 0.00 41 1012.4
20260504190052 72 262 10.0 16.0 0.00 0.00 0.00 41 1012.3
20260504185534 71 288 11.0 16.0 0.00 0.00 0.00 42 1012.6
20260504185040 72 307 11.0 18.0 0.00 0.00 0.00 42 1012.7
20260504184546 71 284 12.0 19.0 0.00 0.00 0.00 43 1012.9
20260504184036 71 291 14.0 19.0 0.00 0.00 0.00 43 1012.7
20260504183536 72 295 14.0 20.0 0.00 0.00 0.00 42 1012.7
20260504183045 72 292 12.0 20.0 0.00 0.00 0.00 44 1012.7
20260504182535 72 275 9.0 14.0 0.00 0.00 0.00 45 1012.7
20260504182037 72 262 9.0 16.0 0.00 0.00 0.00 45 1012.7
20260504181543 72 268 12.0 16.0 0.00 0.00 0.00 46 1013.0
20260504181035 72 271 9.0 14.0 0.00 0.00 0.00 46 1013.0
20260504180536 71 261 9.0 17.0 0.00 0.00 0.00 46 1013.0
20260504180106 71 280 9.0 17.0 0.00 0.00 0.00 46 1013.1
20260504175536 71 277 11.0 18.0 0.00 0.00 0.00 47 1013.2
20260504175035 71 291 14.0 18.0 0.00 0.00 0.00 47 1013.1
20260504174547 71 302 14.0 22.0 0.00 0.00 0.00 48 1013.1
20260504174035 71 267 17.0 22.0 0.00 0.00 0.00 48 1013.0
20260504173535 70 297 13.0 20.0 0.00 0.00 0.00 47 1013.0
20260504173058 70 275 14.0 20.0 0.00 0.00 0.00 47 1012.9
20260504172534 70 275 14.0 20.0 0.00 0.00 0.00 47 1012.9
20260504172034 70 292 12.0 17.0 0.00 0.00 0.00 49 1012.5
20260504171546 70 300 10.0 17.0 0.00 0.00 0.00 49 1012.2
20260504171036 71 275 10.0 17.0 0.00 0.00 0.00 49 1012.0
20260504170536 70 254 9.0 17.0 0.00 0.00 0.00 50 1012.0
20260504151035 69 272 12.0 18.0 0.00 0.00 0.00 54 1012.0
20260504150537 69 279 12.0 17.0 0.00 0.00 0.00 53 1012.0
20260504141035 70 291 10.0 13.0 0.00 0.00 0.00 48 1011.2
20260504140535 70 286 10.0 13.0 0.00 0.00 0.00 48 1011.2
20260504130536 71 259 7.0 9.0 0.00 0.00 0.00 44 1011.1
20260504110535 74 265 6.0 10.0 0.00 0.00 0.00 37 1010.2
20260504100536 74 289 5.0 9.0 0.00 0.00 0.00 35 1010.4
20260504081556 76 275 4.0 10.0 0.00 0.00 0.00 35 1009.7
20260504081037 76 300 6.0 11.0 0.00 0.00 0.00 35 1009.6
20260504080539 76 289 6.0 13.0 0.00 0.00 0.00 35 1009.7